This is the latest recevied weather packets stored in our database for station/object S51FO-6. If no packets are shown the sender has not sent any weather packets the latest 10 day(s).
| Time | Temp. | Humidity | Pressure | Rain* | Wind** | Luminosity | Snow |
|---|---|---|---|---|---|---|---|
| 1777528788 | -1.11° C | 55% | - | 0 mm | - | - | - |
| 1777528191 | -1.67° C | 57% | - | 0 mm | - | - | - |
| 1777526386 | -1.67° C | 56% | - | 0 mm | - | - | - |
| 1777525195 | -1.67° C | 56% | - | 0 mm | - | - | - |
| 1777524587 | -1.67° C | 54% | - | 0 mm | - | - | - |
| 1777522786 | -1.67° C | 53% | - | 0 mm | - | - | - |
| 1777522193 | -1.67° C | 54% | - | 0 mm | - | - | - |
| 1777519788 | -2.22° C | 62% | - | 0 mm | - | - | - |
| 1777518587 | -1.67° C | 62% | - | 0 mm | - | - | - |
| 1777517986 | -1.67° C | 62% | - | 0 mm | - | - | - |
| 1777517402 | -1.67° C | 63% | - | 0 mm | - | - | - |
| 1777516799 | -1.11° C | 63% | - | 0 mm | - | - | - |
| 1777516186 | -1.11° C | 63% | - | 0 mm | - | - | - |
| 1777515587 | -0.56° C | 64% | - | 0 mm | - | - | - |
| 1777514988 | -0.56° C | 65% | - | 0 mm | - | - | - |
| 1777514386 | -0.56° C | 66% | - | 0 mm | - | - | - |
| 1777513787 | -0.56° C | 68% | - | 0 mm | - | - | - |
| 1777513186 | -0.56° C | 68% | - | 0 mm | - | - | - |
| 1777511988 | 0° C | 71% | - | 0 mm | - | - | - |
| 1777511388 | 0° C | 73% | - | 0 mm | - | - | - |
| 1777510186 | 0° C | 74% | - | 0 mm | - | - | - |
| 1777508391 | 0.56° C | 76% | - | 0 mm | - | - | - |
| 1777504188 | 1.67° C | 79% | - | 0 mm | - | - | - |
| 1777492184 | 2.78° C | 82% | - | 1.52 mm | - | - | - |
| 1777490984 | 3.33° C | 82% | - | 2.79 mm | - | - | - |
* Rain latest hour (hover to see other rain measurements)
** Current wind speed in m/s (hover to see current wind gust speed)